Location: *
(44.3925°N, 5.4708°E)
Time: 06:20:12
(UTC+00:00)

Cosmos 1939 Rocket - Pass Details

Date: 18 September 2019
Orbit: 534 x 583 km, 97.4° (Epoch: 18 October)

Event Time Altitude Azimuth Distance (km) Brightness Sun altitude
Rises 18:40:16 0° 171° (S) 2,679 6.1 -10.8°
Reaches altitude 10° 18:42:23 10° 174° (S) 1,789 5.2 -11.2°
Maximum altitude 18:46:14 71° 258° (WSW) 570 3.0 -11.8°
Drops below altitude 10° 18:50:06 10° 343° (NNW) 1,798 5.9 -12.5°
Sets 18:52:14 0° 346° (NNW) 2,695 6.8 -12.9°
